SCP
2 2 2 2 3 4 5 6 7 8 7 6 5 5 5 5 5 5 5 5 5 5 4 4 4 5 5 5 5 6 6 6 5 4 3 2 1 2 1 1 1 1 1
2 2 2 2 3 4 5 6 8 9 8 7 6 5 5 5 5 5 5 5 6 5 4 4 4 4 4 4 5 7 7 6 5 3 2 1 1 1 1 1 1 1 1
2 2 2 2 3 4 5 6 8 9 9 7 6 5 5 5 5 6 6 6 6 5 4 4 3 4 4 4 6 7 6 5 4 2 1 1 1 1 1 2 2 2 2
2 2 3 3 3 4 4 6 8 9 9 7 5 5 5 4 4 6 6 6 6 5 4 3 3 3 3 4 6 6 5 4 2 1 1 1 1 1 1 1 2 2 2
3 3 3 4 4 4 4 6 8 10 9 7 5 4 4 3 3 5 6 7 5 4 3 3 4 3 4 5 5 5 4 3 2 1 1 1 1 1 1 1 1 2 2
3 4 5 6 6 5 5 6 9 12 10 8 5 4 4 3 3 5 6 6 5 4 4 5 5 4 4 5 5 4 3 3 2 2 1 1 1 1 1 1 1 1 1
4 6 8 8 7 5 5 8 11 13 12 9 6 5 4 4 4 4 5 4 5 5 6 6 6 6 6 6 5 5 4 4 3 2 2 1 1 1 1 1 0 1 1
6 7 8 8 7 7 7 8 11 12 12 10 7 5 5 4 4 4 5 5 6 7 7 7 8 8 7 7 6 6 5 5 4 3 2 2 1 1 1 1 1 1 1
8 8 8 8 8 8 8 8 10 11 11 9 7 6 5 4 4 5 6 7 8 7 6 6 7 8 8 7 6 6 6 5 4 4 3 2 2 2 1 1 1 1 1
8 8 8 7 7 8 8 8 10 11 10 8 7 7 6 5 6 7 9 10 9 7 5 4 5 6 7 7 6 6 6 5 5 4 4 3 2 2 1 1 1 1 1
9 9 7 6 5 6 7 8 9 10 9 8 7 7 7 6 7 8 9 11 11 8 5 4 4 5 5 6 6 5 5 5 5 5 4 4 3 3 2 2 2 2 2
11 10 8 6 4 5 6 7 8 9 9 7 7 7 7 7 7 8 9 11 13 10 6 4 4 4 5 5 5 5 5 5 5 5 5 4 4 4 3 3 3 2 2
13 12 9 7 6 6 7 7 7 8 7 7 6 6 6 6 7 8 10 14 14 11 6 4 4 4 4 4 4 4 4 4 5 5 5 5 4 4 5 5 4 3 3
12 11 10 9 8 8 8 8 8 8 7 6 6 6 6 6 7 8 11 15 15 10 5 4 3 3 3 3 3 3 3 4 4 4 5 4 4 5 5 5 5 4 3
10 10 9 9 9 8 8 9 8 7 6 6 6 6 6 6 7 8 11 14 12 8 5 4 3 3 3 2 2 2 2 3 4 4 4 4 4 4 4 5 5 4 4
9 10 9 9 9 8 8 9 8 7 5 5 5 6 6 6 7 8 10 10 9 7 5 4 4 3 2 2 1 1 1 2 3 3 4 4 4 3 3 3 3 3 3
10 11 11 10 9 9 10 10 9 7 6 6 6 6 6 6 6 7 8 8 8 8 7 5 4 4 3 2 1 1 1 2 2 2 3 3 3 3 3 2 2 2 2
13 13 13 11 10 10 10 10 9 8 8 8 8 7 7 6 7 7 7 8 8 8 7 6 5 5 4 3 2 1 1 2 2 2 2 3 3 3 3 3 2 1 1
15 15 14 12 11 10 10 9 8 7 7 7 7 7 7 8 8 8 7 7 8 7 6 6 5 5 4 3 2 2 2 2 2 2 2 2 3 3 3 3 2 1 1
16 16 15 13 11 10 9 8 7 7 7 7 7 7 8 9 8 8 7 7 7 7 6 5 5 5 5 4 3 2 2 3 2 2 2 2 2 2 2 2 2 1 1
16 16 17 15 13 12 9 8 8 9 10 10 9 8 9 9 9 9 8 9 9 8 7 6 6 5 5 4 3 2 2 3 3 2 2 2 2 1 1 1 1 1 1
15 15 16 17 17 16 13 11 11 11 11 10 9 8 9 9 9 9 10 10 10 10 9 8 7 7 5 4 2 2 2 2 3 3 3 3 2 1 1 1 1 1 1
13 12 13 15 15 16 16 15 14 13 12 10 8 8 8 8 9 10 10 11 12 12 11 10 9 7 5 4 3 2 1 1 2 2 2 2 2 1 1 1 1 1 1
10 11 12 14 13 13 14 14 14 13 13 12 10 8 8 8 10 10 10 11 13 14 14 13 10 7 6 5 4 2 1 1 1 1 1 1 1 1 1 1 1 2 2
9 9 10 12 14 14 13 13 12 12 12 13 11 10 9 9 10 11 11 11 12 13 14 13 9 6 5 5 4 2 1 1 0 1 1 1 1 1 1 2 2 2 3
8 8 8 9 12 17 15 13 11 10 10 11 12 11 10 9 10 11 11 11 11 11 11 10 7 5 5 4 3 2 1 1 0 1 1 1 1 1 1 1 2 3 3
Wind_Speed
10 10 9 8 8 7 7 5 4 3 2 1 1 1 1 1 2 2 3 2 1 1 1 1 1 0 0 1 0 0 1 1 1 1 1 0 1 2 2 2 2 3 3
10 10 9 9 9 8 7 6 4 4 3 2 1 1 1 1 1 2 2 2 1 1 1 1 1 1 0 0 1 1 1 1 1 1 1 1 0 0 1 1 2 2 3
12 11 10 9 9 9 8 6 5 5 4 3 2 2 1 0 1 2 2 1 1 0 0 1 1 1 0 0 1 0 1 1 1 2 1 1 1 1 0 2 1 1 1
13 12 12 10 9 9 9 7 6 5 4 3 2 2 2 1 1 1 2 2 1 0 0 1 1 1 1 1 1 1 1 1 1 1 1 1 1 1 1 0 1 1 1
13 13 12 11 10 10 9 8 7 5 5 3 3 2 2 1 1 1 2 2 1 1 0 1 1 1 0 1 1 1 1 1 1 1 0 0 0 1 2 1 0 1 1
12 12 12 12 10 10 9 9 8 6 5 4 3 3 2 1 0 0 1 1 1 1 1 1 1 1 0 1 1 1 1 1 1 1 0 0 1 1 1 2 2 1 1
12 12 12 12 10 10 9 8 9 7 6 5 4 3 2 2 1 1 1 1 1 1 1 1 1 0 1 0 0 0 1 1 1 1 1 1 1 0 1 1 1 1 1
10 10 11 11 10 10 9 9 9 7 7 6 4 3 3 2 1 1 1 1 0 1 2 2 1 1 1 0 0 0 0 1 1 2 2 1 1 1 1 1 2 1 1
10 10 10 11 10 10 9 9 9 8 6 6 5 4 3 2 2 1 2 1 1 1 2 2 2 1 1 0 0 0 1 1 1 2 2 1 1 0 0 1 2 2 1
9 10 9 9 9 9 8 8 9 8 6 6 5 5 4 3 2 1 1 1 1 2 2 2 2 1 1 1 0 0 1 1 1 1 2 2 2 1 0 1 1 1 2
10 9 9 8 8 9 9 8 8 8 6 5 5 3 3 3 2 1 1 1 1 2 2 2 2 2 2 1 1 1 1 2 2 2 2 2 2 2 2 2 2 2 2
9 9 9 9 8 8 8 8 7 7 6 5 4 4 3 3 3 2 2 1 2 2 3 2 1 1 2 2 1 1 2 2 2 2 2 3 2 2 2 2 2 2 2
9 9 8 7 7 7 6 6 7 7 6 6 5 4 4 3 3 2 2 2 2 2 2 2 2 2 2 2 2 2 2 2 2 2 2 2 3 3 2 2 2 2 2
8 9 8 7 7 6 6 6 6 6 6 6 5 4 4 3 3 3 2 2 3 3 2 2 2 2 2 2 2 2 2 2 3 3 4 4 3 3 2 2 3 2 2
9 9 9 8 7 7 7 6 6 5 6 6 5 5 5 4 3 3 3 3 3 3 2 2 2 2 2 3 3 2 3 3 3 3 3 4 6 7 4 3 2 2 2
8 9 9 8 7 7 7 6 6 6 5 5 5 5 5 4 3 3 3 3 3 3 3 3 3 3 3 5 5 4 3 3 3 3 2 3 4 5 6 6 6 4 2
8 8 8 7 7 7 6 7 6 6 5 5 4 4 4 4 4 3 4 3 3 3 3 3 4 4 5 6 6 5 2 3 3 3 2 2 3 3 2 4 5 5 6
9 8 8 7 6 6 6 6 7 6 5 5 4 4 4 4 4 4 3 3 3 3 3 3 3 4 5 6 5 4 2 2 2 2 2 2 3 4 3 3 3 4 4
8 7 8 7 6 6 6 6 6 5 5 5 4 3 3 4 4 4 3 3 3 3 3 3 3 3 3 4 4 3 1 2 2 2 3 2 3 5 4 3 3 2 2
8 7 8 9 7 6 6 6 5 5 4 5 4 3 3 3 4 3 3 2 2 2 3 3 3 3 3 3 4 3 1 1 2 2 2 4 3 3 4 2 2 1 1
10 9 8 7 6 6 5 5 5 4 4 5 4 3 3 3 4 3 2 2 2 2 2 3 3 3 3 3 3 4 1 1 1 1 1 2 3 3 3 2 1 0 1
10 9 8 7 6 6 5 6 5 4 4 4 4 4 3 3 4 3 2 2 2 2 2 2 3 3 3 3 2 3 3 2 1 1 1 1 1 1 1 1 1 2 1
9 8 8 7 6 6 5 6 5 4 4 4 4 4 4 3 3 3 2 1 1 2 2 2 2 3 3 3 3 3 2 2 1 1 2 1 0 1 1 1 1 0 0
8 7 8 7 6 5 5 5 5 5 5 5 4 3 4 3 3 2 2 1 1 0 0 1 1 2 3 2 1 1 1 1 1 1 1 1 0 0 1 1 0 0 0
7 6 6 6 6 5 5 5 4 4 4 4 4 3 3 4 3 3 2 2 3 2 1 1 2 2 2 1 1 0 0 1 1 0 1 1 1 1 1 1 0 0 0
6 6 6 6 6 5 5 4 4 3 3 4 3 2 3 3 3 4 4 6 4 5 5 4 3 3 4 4 3 3 2 2 1 1 1 1 1 1 1 1 1 1 0
Wind_Direction
165 157 157 154 148 139 132 128 127 125 121 114 134 136 130 145 130 125 110 112 85 64 36 20 74 61 115 153 144 176 212 199 173 143 108 208 173 171 173 187 189 180 173
164 160 165 163 159 145 135 135 141 142 146 147 151 144 138 160 137 112 110 120 99 42 91 46 59 87 59 180 222 206 219 218 176 168 162 184 99 270 199 184 200 195 164
170 167 171 170 163 155 155 158 159 163 165 168 167 165 153 193 131 133 133 121 107 97 22 61 25 26 357 249 221 251 220 240 236 195 190 188 185 169 185 202 162 96 100
173 172 172 170 169 166 164 160 161 163 165 175 183 188 178 166 157 132 108 117 117 98 87 110 86 16 21 8 255 192 259 240 248 228 213 213 154 156 142 130 120 142 166
176 175 174 170 172 172 168 164 158 161 164 176 184 190 213 181 158 131 130 134 142 192 145 121 130 93 13 334 328 46 301 280 265 262 264 214 187 172 163 177 159 154 137
172 170 169 165 170 172 170 165 156 161 167 177 186 188 218 210 191 162 151 161 167 174 139 114 109 116 97 346 23 347 328 334 342 331 322 261 189 191 168 166 176 156 116
172 169 166 165 167 171 170 161 156 164 171 178 187 188 202 207 212 214 204 199 181 138 128 106 116 128 150 272 61 315 335 342 341 326 304 318 331 32 127 152 159 158 150
164 164 164 165 167 169 167 161 158 164 174 179 182 188 190 205 212 206 217 189 154 95 116 124 127 117 107 64 58 349 335 350 346 348 347 342 5 26 134 161 153 154 139
164 163 164 166 166 168 165 164 158 164 173 178 174 177 182 190 204 202 198 203 125 100 86 115 120 110 114 114 97 20 12 32 33 10 4 350 360 351 89 137 155 162 150
156 157 157 161 162 161 161 162 160 162 165 172 183 180 180 178 191 217 140 88 64 65 67 79 87 84 64 52 84 55 48 70 54 36 18 12 356 341 352 148 148 112 134
152 152 150 151 154 160 161 163 157 159 165 172 173 166 159 162 161 166 112 94 87 88 72 66 63 69 63 53 57 57 47 59 45 31 35 16 15 16 12 28 64 82 106
147 144 144 149 152 151 155 159 154 156 155 157 154 150 135 129 133 131 110 94 95 93 89 86 77 72 67 55 52 43 51 60 62 41 36 22 25 31 27 25 45 84 109
141 137 133 133 132 134 137 141 146 142 144 144 142 139 131 124 120 114 108 105 98 92 87 78 70 56 58 60 51 45 47 55 58 53 48 37 38 35 39 41 47 58 80
131 127 122 117 115 115 119 124 124 131 130 126 127 124 123 124 122 119 116 109 105 99 90 81 76 67 48 47 50 60 58 65 64 61 53 41 43 37 39 57 53 60 64
130 127 125 123 124 123 121 118 118 113 115 118 120 117 109 106 110 116 111 104 101 104 101 98 85 75 68 40 29 58 83 75 72 70 69 62 60 58 52 60 61 70 72
136 130 126 129 133 132 132 125 115 113 110 113 117 114 116 117 113 112 108 108 101 97 98 93 78 69 63 42 43 43 72 78 69 63 68 83 70 70 74 71 67 68 87
136 130 131 132 133 134 128 126 123 119 120 120 118 118 125 127 122 118 112 110 110 112 105 99 93 84 59 48 43 33 54 70 61 49 40 42 60 60 79 92 84 64 59
133 131 132 131 130 125 119 124 125 124 123 119 117 115 123 122 117 112 104 102 103 109 115 108 101 93 69 52 48 29 76 80 77 64 50 43 47 36 32 85 82 72 51
124 127 130 126 120 123 123 122 124 128 125 117 114 121 122 120 118 115 109 108 115 115 120 121 114 101 80 45 40 21 100 91 80 73 57 62 61 32 37 72 81 75 67
116 120 118 118 113 110 119 128 126 122 122 120 120 119 110 112 113 115 120 119 121 122 118 116 116 114 102 57 33 9 55 100 91 78 73 60 63 43 41 67 91 85 1
113 110 108 108 107 108 115 121 119 115 110 113 115 109 107 115 116 116 118 122 124 125 128 128 125 119 109 95 49 29 7 27 63 80 72 55 55 57 50 47 55 305 262
111 109 106 105 104 105 113 115 109 106 108 111 114 111 110 117 118 122 129 138 151 155 154 151 138 123 115 101 79 58 35 12 46 49 70 91 88 95 58 37 4 353 353
116 117 115 111 109 108 108 110 107 111 118 117 116 117 114 105 115 120 122 136 170 187 175 167 150 126 111 95 77 69 50 39 48 62 89 111 233 179 163 170 247 331 320
119 119 120 116 115 114 110 107 114 119 124 128 128 129 130 120 106 103 110 104 81 72 68 111 116 111 99 84 73 87 105 89 99 109 141 178 222 245 3 37 19 208 294
120 120 121 122 118 121 119 118 112 126 133 133 137 141 138 132 118 101 68 87 72 73 77 62 64 87 102 99 125 130 51 343 343 237 177 164 161 179 190 186 185 212 299
124 127 129 127 128 125 122 122 121 125 143 150 151 160 159 150 155 144 115 62 80 96 88 86 96 92 106 121 101 70 42 17 16 110 170 169 185 196 178 190 206 195 13